Location: Frydek-Mistek
(49.6830°N, 18.3330°E)
Time: 16:44:35
(UTC+02:00)

ISS - Visible Passes

Search period start: 28 September 2023 00:00
Search period end: 08 October 2023 00:00
Orbit: 413 x 421 km, 51.6° (Epoch: 28 September)

Date Brightness Start Highest point End Pass type
(mag) Time Alt. Az. Time Alt. Az. Time Alt. Az.
28 Sep -3.4 20:05:41 10° WNW 20:08:58 55° SSW 20:10:02 36° SSE visible
29 Sep -3.7 19:17:24 10° WNW 19:20:44 77° SSW 19:23:42 13° ESE visible
29 Sep -1.4 20:54:40 10° W 20:56:37 18° SW 20:56:37 18° SW visible
30 Sep -2.1 20:06:01 10° W 20:08:56 28° SW 20:10:18 20° S visible
01 Oct -2.7 19:17:30 10° W 19:20:40 40° SSW 19:23:49 10° SE visible
02 Oct -1.0 20:06:50 10° WSW 20:08:30 13° SW 20:10:09 10° SSW visible
03 Oct -1.4 19:17:42 10° W 19:20:12 20° SW 19:22:43 10° S visible
